Location: Peebles
(55.6412°N, 3.1714°W)
Time: 16:42:37
(UTC+01:00)

Cosmos 1934 Rocket - Pass Details

Date: 31 January 2022
Orbit: 938 x 999 km, 83.0° (Epoch: 25 May)

Event Time Altitude Azimuth Distance (km) Brightness Sun altitude
Rises 06:51:28 0° 180° (S) 3,687 7.2 -10.8°
Reaches altitude 10° 06:54:00 10° 178° (S) 2,735 6.6 -10.4°
Maximum altitude 07:00:13 70° 96° (E) 1,035 4.4 -9.6°
Drops below altitude 10° 07:06:23 10° 15° (NNE) 2,711 6.3 -8.8°
Sets 07:08:53 0° 13° (NNE) 3,653 6.9 -8.4°
